Temperature
20 19 19 19 19 18 18 18 17 17 17 16 16 16 16 15 15 15 15 15 15 15 15 14 14 14 14 14 14 14 14 14 14 14 14 14 14 14 14 14 14 14 14
20 19 19 18 18 18 18 18 17 17 16 16 16 15 15 15 15 15 14 14 14 14 14 14 14 14 14 13 13 13 13 13 13 13 14 14 14 14 14 14 14 14 14
20 19 18 18 18 18 17 17 17 17 16 16 16 15 15 15 15 14 14 14 14 14 14 14 14 13 13 13 13 13 13 13 13 13 13 13 13 13 14 14 14 14 13
20 19 18 18 17 17 17 17 17 16 16 16 15 15 15 14 14 14 14 14 14 14 13 13 13 13 13 13 13 13 13 12 13 13 13 13 13 13 13 13 13 13 13
20 19 18 18 17 17 17 17 16 16 16 16 15 15 14 14 14 14 14 14 13 13 13 13 13 13 13 13 12 12 12 12 12 12 12 13 13 13 13 13 13 13 13
20 19 18 17 17 17 17 16 16 16 16 15 15 15 14 14 14 14 14 13 13 13 13 13 13 13 12 12 12 12 12 12 12 12 12 12 12 13 13 12 12 12 13
20 19 18 17 17 16 16 16 16 15 15 15 15 14 14 14 14 14 14 13 13 13 13 13 13 12 12 12 12 12 12 12 12 12 12 12 12 12 12 12 12 12 12
19 19 18 17 17 16 16 15 15 15 15 15 15 14 14 14 14 14 13 13 13 13 13 13 13 12 12 12 12 12 12 12 12 12 12 12 12 12 12 12 12 12 12
19 18 18 17 16 16 16 15 15 15 15 14 14 14 14 14 14 13 13 13 13 13 13 13 12 12 12 12 12 12 12 12 12 12 12 12 12 12 12 12 12 12 12
19 18 17 17 16 16 15 15 15 15 14 14 14 14 14 14 14 13 13 13 13 13 13 12 12 12 12 12 12 12 12 12 12 12 12 12 12 12 12 12 12 12 12
19 18 17 17 16 15 15 15 14 14 14 14 14 14 14 14 13 13 13 13 13 13 13 12 12 12 12 12 12 12 12 11 12 12 12 12 11 11 11 11 11 12 12
19 18 17 16 16 15 15 15 14 14 14 14 14 13 14 13 13 13 13 13 13 13 12 12 12 12 12 12 12 12 11 11 11 11 11 11 11 11 11 11 11 11 11
18 17 17 16 16 15 15 14 14 14 14 13 13 13 13 13 13 13 13 12 12 12 12 12 12 12 12 12 12 11 11 11 11 11 11 11 11 11 11 11 11 11 11
18 17 16 16 16 15 15 14 14 14 14 13 13 13 13 13 13 12 12 12 12 12 12 12 12 12 12 12 11 11 11 11 11 11 11 11 11 11 11 11 11 11 11
17 17 16 16 15 15 15 14 14 14 14 13 13 13 13 12 12 12 12 12 12 12 12 12 11 11 11 11 11 11 11 11 11 11 11 11 11 11 11 11 11 11 11
17 17 16 16 15 15 15 14 14 14 13 13 13 13 12 12 12 12 12 12 12 11 11 11 11 11 11 11 11 11 11 11 11 11 11 11 11 11 11 11 11 11 10
17 16 16 16 15 15 14 14 14 13 13 13 13 12 12 12 12 12 11 11 11 11 11 11 11 11 11 11 11 11 11 11 10 10 10 10 10 11 11 10 10 10 10
16 16 15 15 15 14 14 14 13 13 13 12 12 12 12 12 11 11 11 11 11 11 11 11 10 10 10 10 10 10 10 10 10 10 10 10 10 10 10 10 10 10 10
15 15 15 14 14 14 14 13 13 13 12 12 12 12 12 11 11 11 11 10 10 10 10 10 10 10 10 10 10 10 10 10 10 10 10 10 10 10 10 10 10 10 10
15 14 14 14 14 13 13 13 13 12 12 12 11 11 11 11 11 10 10 10 10 10 10 10 10 10 10 10 9 9 9 9 9 9 9 9 9 9 9 9 9 9 9
14 14 13 13 13 13 13 13 12 12 11 11 11 11 11 10 10 10 10 10 9 9 9 9 9 9 9 9 9 9 9 9 9 9 9 9 8 9 9 9 9 9 9
13 13 13 13 12 12 12 12 12 11 11 11 10 10 10 10 10 10 9 9 9 9 9 8 8 8 8 8 8 8 8 8 8 8 8 8 8 8 8 8 8 8 8
12 12 12 12 12 12 11 11 11 11 11 10 10 10 10 9 9 9 9 8 8 8 8 8 8 7 8 8 8 8 8 7 7 7 7 7 7 7 7 7 7 7 7
11 11 11 11 11 11 11 10 10 10 10 10 10 9 9 9 9 8 8 8 8 8 8 7 7 7 7 7 7 7 7 7 7 7 7 7 7 7 7 7 7 7 7
11 11 11 10 10 10 10 10 10 10 9 9 9 9 9 8 8 8 8 8 8 8 8 7 7 7 7 7 7 7 7 6 6 6 6 6 6 6 6 6 6 6 6
10 10 10 10 10 10 9 9 9 9 9 9 8 8 8 8 8 7 7 7 7 7 7 7 7 7 6 6 6 6 6 6 6 6 6 6 6 5 5 5 5 5 6
Wind_Speed
7 6 5 5 5 4 4 5 6 5 5 3 2 2 2 2 2 2 4 4 4 5 4 3 3 3 3 3 3 2 2 2 1 1 1 1 1 2 2 2 2 3 4
7 7 7 6 5 4 4 4 4 4 5 4 3 2 2 2 2 2 3 3 4 5 4 3 3 2 2 2 2 3 2 2 2 1 1 1 2 2 1 2 2 2 3
8 8 7 6 5 4 4 4 5 5 5 5 3 3 2 2 2 2 1 2 4 4 4 3 3 2 1 1 1 1 1 1 2 2 1 1 0 2 2 1 1 2 2
6 7 7 7 6 4 3 3 5 5 5 5 4 3 3 2 2 2 2 1 2 3 3 2 2 1 1 1 1 2 1 1 2 2 2 1 1 1 1 2 2 1 2
5 7 6 6 5 4 3 3 4 4 5 5 4 3 2 2 2 2 3 2 1 2 2 2 1 1 1 1 1 2 1 1 1 1 2 2 2 1 1 1 2 2 1
5 6 7 6 5 5 4 3 4 4 4 4 4 3 3 3 3 2 2 2 1 1 1 1 1 0 1 1 1 0 0 0 1 1 1 1 1 1 0 1 2 1 2
5 6 7 6 5 5 4 4 4 4 4 3 3 3 3 3 3 3 2 2 1 1 2 1 1 0 1 1 0 0 0 1 1 1 1 1 1 1 0 0 1 2 2
5 6 6 7 6 6 5 5 5 4 4 4 3 3 3 3 2 2 2 2 2 2 2 2 1 1 1 1 0 0 1 1 1 1 1 1 2 1 0 0 0 2 2
5 5 6 6 7 6 5 5 5 5 4 3 3 3 3 3 2 2 2 2 1 1 2 2 2 2 2 1 1 0 1 1 1 0 0 0 1 1 1 0 1 1 1
5 5 5 5 5 5 5 4 4 4 4 3 3 2 2 2 2 2 2 2 2 2 3 3 3 3 3 2 1 0 1 1 1 0 1 1 1 1 1 1 1 1 2
5 5 4 5 5 5 5 4 4 3 3 4 3 3 3 2 2 2 2 2 2 1 2 2 2 2 2 2 2 2 1 1 2 2 1 2 1 1 1 1 1 1 1
4 4 4 5 5 4 4 4 4 3 3 3 3 3 3 2 2 2 2 2 2 2 1 1 1 1 2 3 3 3 2 2 2 2 2 3 2 2 1 1 2 2 2
4 4 4 4 4 4 4 4 4 4 4 3 3 3 3 3 3 3 3 3 2 2 1 1 2 2 2 2 2 3 3 3 3 3 3 3 2 2 2 2 2 2 2
3 3 3 3 3 3 4 4 4 4 4 4 3 3 3 3 3 3 2 2 2 2 2 2 2 2 2 2 2 2 2 2 2 3 3 2 2 2 2 2 2 2 1
4 3 3 2 3 3 3 3 3 4 4 4 4 4 3 3 3 2 2 2 2 3 3 2 2 2 2 2 2 2 2 2 2 2 2 2 1 1 1 1 2 2 1
2 2 2 2 3 3 3 3 2 3 4 4 4 3 3 3 2 2 2 3 2 2 2 2 2 2 2 2 2 1 2 3 3 3 3 2 2 1 1 2 2 3 3
1 1 1 1 2 2 2 2 2 2 3 3 3 3 3 2 2 2 2 2 2 2 2 2 2 2 1 1 2 3 2 3 3 3 2 2 1 1 1 3 4 4 4
1 1 0 0 1 1 0 2 2 2 3 3 3 3 2 2 2 1 2 1 1 2 2 2 3 2 2 2 3 3 3 3 3 3 2 2 1 0 0 1 2 3 4
2 1 2 1 0 0 0 1 2 2 2 2 2 2 2 2 2 1 1 1 1 2 2 2 2 1 1 2 3 2 2 3 3 3 2 2 1 0 0 1 2 3 3
3 3 2 2 1 1 0 1 1 2 1 2 2 2 2 2 2 2 1 1 1 2 1 2 2 1 1 2 2 2 2 2 3 2 2 2 1 2 1 1 2 3 3
4 3 3 2 1 1 0 1 1 0 0 1 2 2 2 2 2 1 0 0 0 1 1 1 1 1 1 1 2 2 2 2 2 2 2 2 1 1 2 2 2 4 3
3 3 3 2 2 2 2 1 1 0 1 1 2 2 2 2 2 2 1 1 1 0 1 1 1 1 1 1 1 2 3 3 2 2 1 1 2 2 3 3 3 4 4
3 3 3 2 3 3 2 1 1 0 1 1 2 1 2 2 2 2 1 1 1 0 0 1 1 1 1 2 3 3 4 4 2 1 3 3 3 3 2 3 4 4 2
3 3 3 3 3 2 2 2 2 1 1 1 2 1 2 2 2 2 1 1 1 0 1 1 1 1 1 2 2 2 2 3 2 2 2 3 3 3 3 2 2 2 2
2 3 3 3 4 4 4 3 3 1 0 0 1 1 1 2 2 2 1 1 1 1 0 0 1 1 1 2 3 2 1 1 1 2 1 1 1 1 1 1 1 1 2
2 2 3 3 3 3 4 4 4 2 1 0 1 1 1 1 2 2 1 2 2 2 2 2 1 1 2 3 3 3 3 3 2 1 0 1 1 1 1 1 1 2 2
Wind_Direction
171 160 155 154 142 142 143 139 149 151 135 119 107 101 96 97 86 77 71 53 47 68 77 65 53 49 48 43 36 41 24 8 4 36 15 349 26 83 42 33 30 36 65
167 158 158 158 154 158 157 152 146 138 126 118 120 122 115 106 102 77 65 53 50 53 65 70 80 76 61 39 25 37 21 348 3 21 28 9 360 359 6 65 36 23 35
169 162 164 159 155 161 159 153 144 131 121 126 118 116 109 108 96 91 78 49 58 58 53 54 67 75 71 65 40 78 65 346 341 15 54 78 264 322 342 57 65 37 18
157 153 158 159 155 158 152 155 142 138 137 133 135 142 151 148 140 140 136 113 83 77 64 54 62 74 88 74 357 53 17 34 340 342 3 29 111 126 333 339 12 41 22
155 149 148 145 150 148 147 151 136 129 130 137 139 155 158 145 136 133 136 139 112 86 76 62 57 68 89 78 61 49 12 6 356 336 336 352 350 337 141 304 323 349 350
151 146 145 140 140 133 131 139 133 123 121 133 144 160 148 136 129 141 143 152 146 144 98 71 81 93 103 72 84 102 342 345 336 334 340 336 343 312 279 275 295 298 286
149 148 146 146 142 138 142 143 133 129 134 150 150 158 152 156 162 163 171 168 155 165 184 146 169 128 105 97 100 181 227 251 282 278 293 333 329 319 312 305 294 295 270
149 153 153 149 148 148 154 159 161 157 158 170 173 160 159 167 171 156 162 181 181 173 172 173 187 151 88 54 46 267 245 228 247 269 260 306 304 318 13 162 214 311 306
150 149 146 150 151 155 160 166 167 163 163 176 177 177 178 175 175 178 184 182 199 191 177 188 189 172 147 157 111 355 317 326 283 275 236 249 277 304 298 273 189 185 268
144 141 141 149 152 153 156 162 163 169 166 177 184 189 191 182 176 182 188 187 209 208 195 203 197 185 172 167 147 159 328 320 294 295 300 284 275 275 254 262 273 217 209
150 145 143 146 143 146 156 164 168 168 168 180 188 189 177 176 185 186 194 198 207 212 212 221 205 188 183 174 170 187 207 242 265 253 244 259 264 259 262 266 265 272 250
131 138 143 139 142 157 166 168 169 167 173 177 180 182 179 184 188 206 216 201 196 204 215 217 215 212 203 190 189 205 214 227 253 258 247 242 246 244 261 254 244 246 250
120 124 131 146 153 161 169 178 178 181 177 176 180 181 187 188 200 214 215 204 198 208 214 220 225 227 229 213 209 206 216 221 234 240 242 247 234 237 257 246 248 249 258
128 130 142 155 153 168 178 181 185 185 175 171 176 183 196 195 206 217 208 211 211 213 218 219 228 226 217 223 242 241 239 236 247 247 243 239 233 222 238 241 244 247 248
142 147 162 167 163 179 184 179 180 180 179 173 180 194 200 190 199 203 200 217 220 222 223 226 230 231 228 239 253 244 261 261 261 267 258 236 229 239 249 259 237 236 236
128 153 179 182 186 200 191 168 172 178 177 177 184 189 193 191 200 206 209 216 224 227 225 223 230 246 264 275 292 302 254 253 254 263 262 245 212 245 315 323 279 232 222
83 119 218 213 218 226 184 174 177 175 172 176 183 180 187 189 204 220 225 217 214 233 242 245 232 229 259 279 297 301 277 253 244 248 258 270 252 197 245 281 284 273 257
83 77 307 244 282 298 163 172 166 182 182 174 169 156 161 167 180 204 219 223 232 240 231 246 236 209 229 279 301 296 276 269 254 246 245 241 226 153 106 301 292 278 261
52 46 15 10 344 281 165 154 170 172 170 168 168 163 164 173 179 195 203 227 252 253 239 255 251 217 237 290 298 306 268 273 270 260 254 252 213 310 53 274 278 277 275
43 44 32 16 11 357 185 177 182 157 175 174 174 181 171 169 180 191 214 223 232 247 248 260 259 234 219 292 292 290 253 273 278 280 284 282 311 4 15 282 281 279 281
45 32 18 16 16 4 54 145 130 163 184 142 156 173 168 161 154 162 197 126 155 282 269 269 283 268 234 272 275 276 256 266 278 278 282 286 324 313 311 291 266 278 289
42 29 18 19 20 24 28 88 100 66 75 123 150 158 151 152 135 123 111 102 102 11 312 317 326 335 357 347 302 277 279 295 274 284 295 318 336 318 301 287 288 301 310
38 33 25 23 30 23 11 23 6 41 147 139 151 164 150 139 125 122 116 99 102 105 314 318 311 341 358 4 358 333 311 302 288 300 342 345 334 319 305 294 309 317 318
39 28 26 26 21 18 33 23 27 51 26 149 165 176 161 143 122 109 101 93 78 56 354 339 336 355 21 26 10 347 338 343 328 319 321 327 325 323 324 335 314 293 290
48 32 28 18 13 23 32 22 20 55 52 125 118 129 121 118 109 101 88 110 105 114 97 304 333 4 347 353 359 4 348 352 335 346 322 310 326 332 317 306 286 276 290
58 46 36 27 23 25 26 19 19 24 29 94 118 94 79 96 117 129 101 67 89 76 55 33 26 12 11 358 4 0 354 355 360 27 345 300 289 282 287 292 300 299 298
Height
1505 1507 1509 1511 1513 1515 1516 1517 1519 1519 1520 1522 1523 1523 1524 1525 1525 1526 1526 1527 1527 1527 1526 1527 1527 1527 1527 1527 1527 1527 1527 1527 1527 1527 1526 1527 1527 1527 1526 1526 1526 1525 1526
1503 1505 1507 1509 1511 1513 1515 1516 1517 1518 1519 1521 1522 1523 1524 1524 1525 1525 1526 1526 1526 1526 1527 1527 1526 1527 1526 1526 1526 1527 1527 1527 1527 1527 1527 1527 1528 1527 1526 1526 1526 1526 1526
1500 1503 1505 1507 1510 1512 1513 1515 1516 1517 1518 1519 1521 1522 1523 1524 1524 1525 1525 1526 1526 1526 1526 1526 1526 1526 1526 1526 1526 1526 1526 1527 1527 1527 1528 1527 1527 1527 1527 1526 1526 1526 1526
1498 1501 1503 1505 1508 1510 1512 1514 1515 1516 1517 1518 1519 1520 1521 1522 1523 1524 1525 1525 1525 1526 1526 1526 1526 1526 1526 1526 1526 1526 1526 1526 1526 1527 1527 1528 1527 1527 1526 1527 1526 1526 1526
1497 1499 1501 1504 1506 1508 1510 1512 1513 1515 1516 1517 1518 1519 1521 1522 1523 1524 1524 1524 1525 1525 1525 1525 1526 1526 1525 1525 1525 1525 1525 1526 1526 1526 1526 1526 1527 1527 1526 1526 1526 1525 1525
1495 1497 1500 1502 1504 1506 1508 1510 1511 1513 1514 1515 1516 1518 1519 1520 1521 1522 1523 1523 1524 1524 1524 1524 1525 1525 1525 1525 1525 1525 1525 1525 1525 1525 1525 1526 1526 1526 1526 1525 1525 1524 1524
1493 1496 1498 1501 1503 1504 1506 1508 1510 1511 1512 1514 1515 1516 1518 1519 1520 1521 1522 1522 1523 1523 1523 1523 1524 1524 1524 1524 1524 1524 1524 1524 1524 1524 1524 1524 1525 1525 1525 1524 1524 1523 1523
1492 1495 1497 1499 1501 1502 1504 1506 1508 1509 1511 1512 1514 1515 1516 1517 1518 1519 1520 1521 1522 1522 1522 1523 1523 1523 1523 1523 1523 1522 1523 1523 1523 1523 1523 1523 1523 1523 1523 1523 1523 1522 1522
1491 1493 1495 1497 1499 1500 1502 1504 1506 1508 1509 1510 1512 1513 1514 1515 1517 1518 1518 1519 1520 1520 1521 1521 1522 1522 1522 1522 1521 1521 1521 1521 1521 1521 1521 1521 1521 1521 1522 1522 1522 1522 1521
1490 1492 1494 1495 1497 1499 1501 1502 1504 1506 1507 1508 1509 1511 1512 1513 1514 1516 1516 1517 1518 1519 1519 1519 1520 1520 1520 1520 1520 1520 1520 1520 1520 1520 1520 1520 1520 1520 1520 1520 1520 1520 1520
1489 1491 1493 1494 1496 1498 1499 1501 1502 1504 1505 1506 1507 1508 1510 1511 1512 1513 1514 1515 1516 1517 1517 1518 1518 1518 1518 1518 1518 1518 1518 1518 1518 1518 1518 1517 1518 1518 1517 1517 1517 1517 1517
1489 1490 1492 1493 1495 1496 1498 1499 1500 1501 1502 1503 1505 1506 1507 1508 1509 1510 1511 1512 1513 1514 1515 1515 1516 1516 1516 1516 1516 1516 1516 1516 1516 1516 1516 1515 1515 1515 1515 1515 1515 1514 1515
1488 1490 1491 1492 1493 1495 1496 1497 1498 1499 1500 1501 1502 1503 1504 1505 1506 1507 1508 1510 1510 1511 1512 1513 1513 1514 1514 1514 1514 1515 1514 1514 1514 1514 1514 1513 1513 1513 1512 1512 1512 1512 1512
1487 1488 1490 1491 1492 1493 1494 1494 1495 1496 1498 1499 1500 1500 1502 1502 1503 1504 1506 1507 1507 1508 1509 1510 1511 1511 1511 1511 1512 1512 1512 1511 1511 1511 1511 1511 1511 1510 1509 1509 1508 1509 1509
1485 1487 1488 1490 1490 1491 1492 1493 1493 1494 1495 1496 1497 1498 1499 1500 1501 1502 1503 1504 1505 1505 1506 1507 1507 1508 1508 1508 1508 1508 1508 1508 1508 1508 1508 1508 1508 1507 1507 1506 1505 1505 1505
1484 1486 1487 1488 1488 1489 1490 1490 1491 1492 1492 1493 1494 1495 1496 1497 1498 1499 1500 1501 1501 1502 1503 1504 1504 1505 1505 1505 1505 1505 1505 1505 1505 1505 1505 1505 1504 1504 1504 1503 1503 1503 1502
1483 1484 1485 1486 1486 1487 1487 1488 1488 1489 1490 1491 1491 1492 1494 1494 1495 1496 1497 1498 1498 1499 1500 1500 1501 1501 1501 1501 1501 1501 1501 1501 1501 1502 1501 1501 1501 1501 1500 1500 1499 1499 1499
1482 1483 1483 1484 1484 1484 1485 1485 1485 1486 1487 1488 1488 1489 1490 1491 1492 1493 1493 1494 1495 1496 1496 1497 1497 1497 1497 1498 1498 1498 1498 1498 1498 1498 1498 1498 1497 1497 1497 1496 1496 1495 1495
1480 1481 1481 1482 1482 1482 1482 1483 1483 1483 1484 1484 1485 1486 1487 1488 1488 1489 1490 1491 1492 1492 1493 1493 1494 1494 1493 1494 1494 1494 1494 1494 1494 1494 1494 1494 1494 1494 1493 1493 1492 1492 1491
1479 1479 1479 1480 1479 1480 1480 1481 1481 1481 1481 1482 1482 1483 1484 1485 1485 1486 1487 1488 1488 1489 1489 1490 1490 1490 1490 1490 1490 1490 1490 1489 1489 1489 1490 1490 1490 1490 1490 1489 1489 1488 1488
1478 1478 1478 1478 1478 1478 1478 1478 1478 1479 1479 1480 1480 1481 1481 1482 1482 1483 1484 1484 1485 1485 1486 1486 1486 1486 1486 1486 1486 1486 1486 1486 1485 1485 1485 1485 1486 1486 1486 1486 1486 1485 1485
1477 1477 1477 1476 1476 1476 1475 1475 1476 1476 1477 1477 1478 1478 1478 1479 1480 1480 1481 1481 1482 1482 1482 1482 1482 1483 1483 1483 1482 1482 1482 1482 1482 1481 1482 1482 1482 1482 1482 1482 1482 1482 1482
1476 1475 1475 1475 1475 1474 1474 1473 1474 1474 1474 1475 1475 1475 1476 1476 1477 1477 1478 1478 1479 1479 1479 1479 1480 1479 1479 1479 1479 1479 1479 1478 1478 1478 1478 1478 1478 1478 1478 1478 1478 1478 1478
1475 1474 1474 1473 1473 1472 1472 1471 1471 1471 1472 1472 1473 1473 1474 1474 1474 1475 1476 1476 1476 1476 1477 1477 1477 1477 1476 1476 1475 1475 1475 1475 1474 1474 1474 1474 1474 1474 1474 1474 1474 1474 1474
1473 1473 1472 1472 1471 1470 1470 1469 1469 1469 1469 1470 1471 1471 1472 1472 1472 1473 1473 1474 1474 1474 1474 1474 1474 1474 1473 1473 1473 1472 1472 1471 1471 1471 1470 1470 1470 1470 1470 1470 1470 1471 1471
1472 1471 1470 1470 1469 1469 1468 1467 1466 1466 1467 1467 1468 1469 1469 1470 1470 1471 1471 1472 1473 1473 1472 1472 1473 1472 1472 1471 1470 1470 1469 1469 1468 1468 1467 1467 1467 1467 1467 1467 1467 1467 1467